User: anonymous   Login
Location: Unspecified
(0.0000°N, 0.0000°E)
Time: 06:30:25
(UTC+02:00)
Language:

Cosmos 2263 Rocket - Orbit

View from above orbital plane
View from above orbital plane
View from above satellite
View from above satellite

Ground track
Ground track

The orbit data is extracted from the following two-line orbital elements,

1 22803U 93059B   16146.88801555  .00000038  00000-0  43097-4 0  9997
2 22803  70.9902 345.5481 0019369 256.9231 102.9731 14.16742111173428
Epoch (UTC): 25 May 2016 21:18:44
Eccentricity: 0.0019369
inclination: 70.9902°
perigee height: 822 km
apogee height: 850 km
right ascension of ascending node: 345.5481°
argument of perigee: 256.9231°
revolutions per day: 14.16742111
mean anomaly at epoch: 102.9731°
orbit number at epoch: 17342

The dashed part of the orbit path shows where the satellite is in the earth's shadow,  

DLR